TimeEST,TemperatureF,Dew PointF,Humidity,Sea Level PressureIn,VisibilityMPH,Wind Direction,Wind SpeedMPH,Gust SpeedMPH,PrecipitationIn,Events,Conditions,WindDirDegrees,DateUTC
12:14 AM,24.8,17.6,74,30.07,10.0,NNW,4.6,-,N/A,,Overcast,340,2013-03-02 05:14:00
12:34 AM,24.8,17.2,73,30.06,10.0,North,4.6,-,N/A,,Overcast,350,2013-03-02 05:34:00
12:55 AM,24.6,16.7,72,30.06,10.0,NNW,8.1,-,N/A,,Overcast,340,2013-03-02 05:55:00
1:14 AM,24.6,16.5,71,30.06,10.0,NNW,4.6,-,N/A,,Overcast,340,2013-03-02 06:14:00
1:35 AM,24.8,16.5,71,30.06,10.0,NNW,5.8,-,N/A,,Overcast,340,2013-03-02 06:35:00
1:54 AM,24.8,16.3,70,30.06,10.0,NNW,5.8,-,N/A,,Overcast,340,2013-03-02 06:54:00
2:14 AM,24.6,15.8,69,30.06,10.0,North,6.9,-,N/A,,Overcast,360,2013-03-02 07:14:00
2:35 AM,24.8,16.3,70,30.05,10.0,NNW,5.8,-,N/A,,Overcast,340,2013-03-02 07:35:00
2:54 AM,24.4,16.0,70,30.05,10.0,North,6.9,-,N/A,,Overcast,360,2013-03-02 07:54:00
3:14 AM,24.3,16.2,71,30.04,10.0,NNW,5.8,-,N/A,,Overcast,330,2013-03-02 08:14:00
3:35 AM,24.6,16.9,72,30.04,10.0,NW,6.9,-,N/A,,Overcast,320,2013-03-02 08:35:00
3:54 AM,24.4,16.7,72,30.04,10.0,NNW,6.9,-,N/A,,Overcast,330,2013-03-02 08:54:00
4:14 AM,24.4,16.7,72,30.04,10.0,NNW,6.9,-,N/A,,Overcast,330,2013-03-02 09:14:00
4:35 AM,24.4,16.7,72,30.04,10.0,NNW,10.4,-,N/A,,Overcast,330,2013-03-02 09:35:00
4:54 AM,24.3,16.7,73,30.04,10.0,NNW,9.2,-,N/A,,Overcast,330,2013-03-02 09:54:00
5:14 AM,23.7,16.3,73,30.04,10.0,NNW,5.8,-,N/A,,Overcast,340,2013-03-02 10:14:00
5:35 AM,23.7,16.3,73,30.04,10.0,NNW,6.9,-,N/A,,Overcast,340,2013-03-02 10:35:00
5:54 AM,23.7,16.3,73,30.04,10.0,NNW,4.6,-,N/A,,Overcast,340,2013-03-02 10:54:00
6:14 AM,23.7,16.5,74,30.04,10.0,NNW,6.9,-,N/A,,Overcast,330,2013-03-02 11:14:00
6:35 AM,23.0,16.2,75,30.05,10.0,NW,9.2,-,N/A,,Overcast,320,2013-03-02 11:35:00
6:54 AM,23.0,16.2,75,30.05,10.0,NW,8.1,-,N/A,,Overcast,310,2013-03-02 11:54:00
7:15 AM,22.6,15.8,75,30.05,10.0,NNW,6.9,-,N/A,,Overcast,330,2013-03-02 12:15:00
7:34 AM,22.5,15.8,76,30.05,10.0,NNW,9.2,-,N/A,,Overcast,330,2013-03-02 12:34:00
7:54 AM,23.0,16.3,76,30.05,7.0,NNW,6.9,-,N/A,,Overcast,330,2013-03-02 12:54:00
8:15 AM,22.3,16.5,79,30.06,7.0,NW,9.2,-,N/A,,Overcast,320,2013-03-02 13:15:00
8:34 AM,22.6,16.9,79,30.06,7.0,NNW,9.2,-,N/A,,Overcast,330,2013-03-02 13:34:00
8:54 AM,22.8,17.1,79,30.06,5.0,NNW,8.1,-,N/A,,Haze,340,2013-03-02 13:54:00
9:15 AM,23.0,17.4,79,30.06,5.0,NNW,9.2,-,N/A,Snow,Light Snow,330,2013-03-02 14:15:00
9:34 AM,23.4,17.4,78,30.06,7.0,NNW,6.9,-,N/A,Snow,Light Snow,330,2013-03-02 14:34:00
9:54 AM,23.0,17.1,78,30.06,7.0,NNW,6.9,-,N/A,Snow,Light Snow,340,2013-03-02 14:54:00
10:15 AM,23.0,17.2,79,30.06,7.0,North,5.8,-,N/A,Snow,Light Snow,350,2013-03-02 15:15:00
10:34 AM,24.1,17.8,77,30.06,7.0,NNW,5.8,-,N/A,Snow,Light Snow,340,2013-03-02 15:34:00
10:54 AM,23.9,17.6,77,30.06,10.0,NNW,6.9,-,N/A,Snow,Light Snow,340,2013-03-02 15:54:00
11:15 AM,23.9,17.8,77,30.06,10.0,NNW,8.1,-,N/A,,Overcast,330,2013-03-02 16:15:00
11:34 AM,24.3,18.1,77,30.06,7.0,NW,8.1,-,N/A,Snow,Light Snow,320,2013-03-02 16:34:00
11:54 AM,24.4,18.1,77,30.06,10.0,NNW,8.1,-,N/A,Snow,Light Snow,330,2013-03-02 16:54:00
12:14 PM,25.0,18.3,76,30.06,7.0,NNW,11.5,-,N/A,Snow,Light Snow,330,2013-03-02 17:14:00
12:34 PM,25.2,18.3,75,30.05,7.0,NNW,8.1,-,N/A,Snow,Light Snow,330,2013-03-02 17:34:00
12:55 PM,24.8,18.1,76,30.05,7.0,NNW,6.9,-,N/A,Snow,Light Snow,330,2013-03-02 17:55:00
1:14 PM,25.3,18.3,75,30.04,7.0,NNW,9.2,-,N/A,Snow,Light Snow,340,2013-03-02 18:14:00
1:34 PM,25.5,18.1,74,30.04,7.0,NW,9.2,-,N/A,Snow,Light Snow,320,2013-03-02 18:34:00
1:55 PM,25.5,18.0,73,30.04,7.0,NNW,8.1,-,N/A,Snow,Light Snow,330,2013-03-02 18:55:00
2:14 PM,25.5,17.8,72,30.04,5.0,NNW,10.4,-,N/A,Snow,Light Snow,340,2013-03-02 19:14:00
2:34 PM,25.7,18.0,73,30.03,7.0,NNW,10.4,-,N/A,Snow,Light Snow,330,2013-03-02 19:34:00
2:54 PM,25.5,17.6,72,30.03,7.0,NW,9.2,-,N/A,Snow,Light Snow,320,2013-03-02 19:54:00
3:14 PM,25.5,17.6,72,30.03,7.0,NNW,8.1,-,N/A,Snow,Light Snow,330,2013-03-02 20:14:00
3:35 PM,25.2,17.6,73,30.03,10.0,NNW,8.1,-,N/A,Snow,Light Snow,340,2013-03-02 20:35:00
3:54 PM,25.2,17.2,72,30.04,7.0,NNW,8.1,-,N/A,Snow,Light Snow,330,2013-03-02 20:54:00
4:14 PM,25.2,16.5,70,30.04,10.0,North,4.6,-,N/A,,Overcast,350,2013-03-02 21:14:00
4:35 PM,24.8,16.5,71,30.04,10.0,NNW,6.9,-,N/A,Snow,Light Snow,340,2013-03-02 21:35:00
4:54 PM,24.8,15.6,68,30.04,10.0,NW,8.1,16.1,N/A,,Overcast,320,2013-03-02 21:54:00
5:14 PM,24.6,17.2,74,30.04,10.0,NNW,6.9,-,N/A,,Overcast,330,2013-03-02 22:14:00
5:35 PM,24.6,17.2,74,30.04,10.0,NNW,5.8,-,N/A,Snow,Light Snow,330,2013-03-02 22:35:00
5:54 PM,24.4,17.1,73,30.05,10.0,NNW,8.1,-,N/A,Snow,Light Snow,330,2013-03-02 22:54:00
6:14 PM,24.4,16.7,72,30.05,10.0,NNW,5.8,-,N/A,Snow,Light Snow,330,2013-03-02 23:14:00
6:35 PM,23.9,16.2,72,30.06,10.0,NNW,5.8,-,N/A,Snow,Light Snow,330,2013-03-02 23:35:00
6:54 PM,24.1,16.5,73,30.06,10.0,NW,6.9,-,N/A,,Overcast,320,2013-03-02 23:54:00
7:14 PM,23.9,16.2,72,30.06,10.0,NW,4.6,-,N/A,Snow,Light Snow,310,2013-03-03 00:14:00
7:54 PM,23.9,16.3,73,30.05,10.0,WNW,4.6,-,N/A,Snow,Light Snow,300,2013-03-03 00:54:00
8:15 PM,23.9,16.5,73,30.05,10.0,WNW,6.9,-,N/A,Snow,Light Snow,300,2013-03-03 01:15:00
8:34 PM,23.9,16.7,74,30.05,10.0,WNW,5.8,-,N/A,,Overcast,290,2013-03-03 01:34:00
8:54 PM,23.7,16.3,73,30.05,10.0,WNW,6.9,-,N/A,Snow,Light Snow,290,2013-03-03 01:54:00
9:15 PM,22.5,14.7,72,30.04,10.0,West,4.6,-,N/A,,Mostly Cloudy,280,2013-03-03 02:15:00
9:34 PM,22.1,14.7,73,30.04,10.0,West,4.6,-,N/A,,Clear,270,2013-03-03 02:34:00
9:54 PM,20.8,14.0,75,30.04,10.0,West,5.8,-,N/A,,Clear,270,2013-03-03 02:54:00
10:14 PM,20.8,14.2,75,30.04,10.0,West,5.8,-,N/A,,Clear,270,2013-03-03 03:14:00
10:34 PM,21.2,14.9,77,30.04,10.0,West,4.6,-,N/A,,Mostly Cloudy,280,2013-03-03 03:34:00
10:55 PM,21.7,15.3,76,30.04,10.0,West,5.8,-,N/A,,Overcast,280,2013-03-03 03:55:00
11:14 PM,22.1,14.9,74,30.04,10.0,West,5.8,-,N/A,,Overcast,280,2013-03-03 04:14:00
11:34 PM,22.5,15.3,74,30.04,10.0,West,8.1,-,N/A,,Overcast,280,2013-03-03 04:34:00
11:55 PM,22.6,15.3,73,30.03,10.0,WNW,6.9,-,N/A,,Overcast,290,2013-03-03 04:55:00